Voltar ao catálogo

ATLAS AGENA B DEB

AtivoPO
NORAD 630·DEBRIS·🇺🇸 United States

Lançado Jul 19, 1963 de Vandenberg Space Force Base

Loading…

Próximas Passagens (próximas 24 horas)

TLE

AtualizadoSource: Space-Track

Época: Sep 14, 2026, 18:08 UTC

1 00630U 63030C   26257.75606436  .00000022  00000-0  96107-2 0  9999
2 00630  88.4682 198.2918 0063976 144.1983 216.3181  8.59864753982530

Acompanhe ATLAS AGENA B DEB em tempo real com AllMySat

Download on the App Store